SCP
0 0 0 0 0 0 0 0 0 0 0 0 0 0 0 -0 -0 -0 -0 -0 -0 0 0 0 0 0 -0 0 0 -0 -0 -0 -0 -0 -0 0 0 -0 -0 -0 0 0 -0
-0 0 0 0 0 0 0 0 0 0 0 0 0 0 -0 0 0 0 0 -0 -0 -0 0 0 0 0 0 0 0 0 0 0 -0 0 0 0 0 0 0 0 0 -0 -0
0 0 0 0 0 0 0 0 0 0 0 0 0 0 0 0 0 0 0 0 0 0 0 0 0 0 0 0 0 0 0 0 0 0 -0 0 0 0 0 0 0 -0 -0
0 0 0 0 0 0 0 0 0 0 0 0 0 0 0 0 0 0 0 0 0 0 0 0 0 0 0 0 0 0 0 0 0 0 0 0 0 0 0 0 0 0 0
0 0 0 0 0 0 0 0 0 0 0 0 1 0 0 0 0 0 0 0 0 0 0 0 0 0 0 0 0 0 0 0 0 0 0 0 0 0 0 0 0 0 0
0 0 0 0 1 1 1 1 1 1 1 1 1 1 1 0 0 0 0 0 0 0 0 0 0 0 0 0 0 0 0 0 0 0 0 0 0 0 0 0 0 0 0
0 0 0 0 0 0 1 0 1 1 1 1 1 0 0 0 0 0 0 0 0 0 0 0 0 0 0 0 0 0 0 0 0 0 0 0 0 0 0 0 0 0 0
0 0 0 0 0 0 0 0 1 0 0 0 0 0 0 0 0 0 0 0 0 0 0 0 0 0 0 0 0 0 0 0 0 0 0 0 0 0 0 0 0 0 0
0 0 0 0 0 0 0 0 0 0 0 0 0 0 0 0 0 0 0 0 0 0 0 0 0 0 0 0 0 0 0 0 0 0 0 0 0 0 0 0 0 0 0
0 0 0 0 0 0 0 0 0 0 0 0 0 0 0 0 0 0 0 0 0 0 0 0 0 0 0 0 0 0 0 0 0 0 0 0 0 0 0 0 0 0 0
0 0 0 0 0 0 0 0 0 0 0 0 0 0 0 0 0 0 0 0 0 0 0 0 0 0 0 0 0 0 0 0 0 0 0 0 0 0 0 0 0 0 0
0 0 0 0 0 0 0 0 0 0 0 0 0 0 0 0 0 0 -0 0 0 0 0 0 0 0 0 0 0 0 0 0 0 0 0 0 0 0 0 0 0 0 0
0 0 0 0 0 0 0 0 0 0 0 0 0 0 0 0 0 0 0 0 0 0 0 0 0 0 0 0 0 0 0 0 0 0 0 0 0 0 0 0 0 0 0
0 0 0 0 0 0 0 0 0 0 0 0 0 0 0 0 0 0 0 0 0 0 0 0 0 0 0 0 0 0 0 0 0 0 0 0 0 0 0 0 0 0 0
0 0 0 0 0 0 0 0 0 0 0 0 0 0 0 0 0 0 0 0 0 0 0 0 0 0 0 0 0 0 0 0 0 0 0 0 0 0 0 0 0 0 0
0 0 0 0 0 0 0 0 0 0 0 0 0 0 0 0 0 0 0 0 0 0 0 0 0 0 0 0 0 0 0 0 0 0 0 0 0 0 0 0 0 0 0
0 0 0 0 0 0 0 0 0 0 0 0 0 0 0 0 0 0 0 0 0 0 0 0 0 0 0 0 0 0 0 0 0 0 0 0 0 0 0 0 0 0 0
0 0 0 0 0 0 0 0 0 0 0 0 0 0 0 0 0 0 0 0 0 0 0 0 0 0 0 0 0 0 0 0 0 0 0 0 0 0 0 0 0 0 0
0 0 0 0 0 0 0 0 0 0 0 0 0 0 0 0 0 0 0 0 0 0 0 0 0 0 0 0 0 0 0 0 0 0 0 0 0 0 0 0 0 0 0
0 0 0 0 0 0 0 0 0 0 0 0 0 0 0 0 0 0 0 0 0 0 0 0 0 0 0 0 0 0 0 0 0 0 0 0 0 0 0 0 0 0 0
0 0 0 0 0 0 0 0 0 0 0 0 0 0 0 0 0 0 0 0 0 0 0 0 0 0 0 0 0 0 0 0 0 0 0 0 0 -0 0 0 0 0 0
0 0 0 0 0 0 0 0 0 0 0 0 0 0 0 0 0 0 0 0 0 0 0 0 0 0 0 0 0 0 0 0 0 0 0 0 0 0 0 0 0 0 0
0 0 0 0 0 0 0 0 0 0 0 0 0 0 0 0 0 0 0 0 0 0 0 0 0 0 0 0 0 0 0 0 0 0 0 0 0 0 0 0 0 0 0
0 0 0 0 0 0 0 0 0 0 0 0 0 0 0 0 0 0 0 0 0 0 0 0 0 0 0 0 0 0 0 0 0 0 0 0 0 0 0 0 0 0 0
0 0 0 0 0 0 0 0 0 0 0 0 0 0 0 0 0 0 0 0 0 0 0 0 0 0 0 0 0 0 0 0 0 0 0 0 0 0 0 0 -0 -0 -0
0 0 0 0 0 0 0 0 0 0 0 0 0 0 0 0 0 0 0 0 0 0 0 0 0 0 0 0 0 0 0 0 0 0 0 0 0 0 0 0 0 -0 -0
Wind_Speed_500mb
46 43 39 35 41 40 39 35 33 30 28 28 27 27 27 29 29 29 27 26 25 22 23 24 23 23 22 21 18 18 18 15 12 8 6 2 5 7 2 6 12 22 23
46 42 39 34 37 42 41 37 31 30 31 28 30 35 32 28 35 38 37 29 32 24 23 24 22 19 14 17 15 15 17 19 17 18 14 9 4 4 6 10 17 22 22
49 45 41 37 36 40 39 38 35 32 32 33 32 38 37 35 32 36 37 36 30 26 24 26 26 22 19 18 16 16 17 16 17 16 14 18 18 17 15 17 17 13 11
51 50 46 41 34 33 35 33 33 31 32 31 30 31 33 33 32 31 33 33 34 36 30 30 32 31 26 26 23 20 14 13 14 15 16 16 18 21 16 9 7 5 4
43 53 53 47 39 32 33 33 32 32 35 31 27 29 30 29 30 31 33 36 38 36 36 38 31 32 26 24 26 22 19 17 16 16 16 13 12 11 10 9 4 1 3
58 53 48 45 42 34 27 28 33 32 33 31 29 26 27 30 31 34 35 41 39 40 38 35 35 34 35 33 26 24 23 21 18 17 13 13 17 16 16 13 6 6 7
52 48 53 54 49 33 29 29 32 34 33 33 32 30 25 27 28 28 30 35 43 42 41 38 36 37 31 32 27 26 27 26 22 18 21 23 21 21 21 17 9 7 10
44 50 52 48 51 43 45 33 28 33 39 36 31 29 26 29 31 31 29 25 32 38 40 36 36 38 30 22 25 28 33 28 23 25 25 26 25 22 16 14 11 11 11
21 25 29 29 29 26 29 23 23 24 32 31 22 18 19 20 22 28 29 27 21 29 38 42 40 41 38 23 25 26 31 29 27 25 20 14 9 9 11 10 9 9 6
17 21 19 13 20 20 27 29 14 19 27 26 21 17 23 29 31 31 29 29 27 21 26 29 28 32 25 24 27 29 29 29 26 17 11 7 8 10 11 11 12 7 7
13 21 14 12 12 15 22 22 27 32 41 43 46 42 42 45 41 32 29 29 25 32 28 32 26 27 25 23 29 26 23 22 20 16 14 12 11 8 8 10 11 13 15
14 17 10 7 11 8 9 15 19 15 15 20 18 19 18 16 17 24 24 25 31 35 24 22 26 27 25 22 17 16 17 22 23 20 15 11 10 11 12 13 13 12 13
7 10 10 8 6 5 5 5 5 5 2 1 2 8 10 11 12 14 24 28 29 31 37 36 38 41 35 25 20 20 23 24 22 17 13 10 9 8 8 11 14 16 17
6 8 10 12 13 13 17 12 10 8 5 1 3 3 5 6 9 10 12 10 9 15 19 22 21 17 14 18 24 24 20 16 11 7 3 1 5 9 12 15 18 20 22
10 10 11 10 8 7 7 6 7 7 4 2 4 7 6 9 9 9 8 9 8 6 2 5 17 19 17 19 20 21 21 18 13 12 13 15 18 19 19 20 19 17 17
11 10 9 8 6 5 5 3 6 8 5 7 6 8 8 10 9 10 8 9 10 8 12 21 19 14 19 18 12 7 9 14 25 20 14 11 16 21 22 19 18 18 19
15 14 10 8 6 5 6 7 5 9 10 10 10 5 5 9 15 16 16 16 15 16 14 19 17 8 13 11 4 8 12 17 17 19 14 14 18 16 18 20 19 18 17
12 11 13 13 12 9 6 5 6 5 4 1 1 6 12 13 8 2 6 11 16 17 13 9 6 7 8 6 5 6 5 4 3 2 4 4 6 8 10 10 12 14 17
10 11 10 9 10 11 11 11 10 12 14 11 11 13 17 21 20 16 18 11 6 7 10 9 5 5 3 2 4 4 4 2 3 7 6 5 4 7 11 14 17 19 20
6 9 8 10 9 9 9 5 8 4 6 7 9 12 11 12 9 11 13 11 10 13 14 11 15 13 7 3 4 3 6 9 8 8 10 9 7 7 8 10 13 14 15
3 10 11 14 9 11 12 12 9 3 6 6 9 11 15 16 13 8 9 9 7 5 7 10 9 11 15 16 13 10 9 9 9 8 10 9 7 7 9 10 13 14 14
13 13 17 18 16 13 17 17 16 15 12 17 17 14 14 13 12 11 9 6 5 5 8 11 11 9 8 9 8 8 9 9 8 8 6 5 5 6 9 11 13 15 15
27 23 23 25 23 23 21 19 18 17 15 18 25 14 18 17 13 12 11 10 9 9 9 8 9 10 11 9 6 5 4 3 2 1 1 2 5 7 9 12 13 14 13
31 29 28 27 29 26 26 21 19 16 18 17 21 22 21 20 21 21 21 21 21 18 16 17 18 17 14 9 8 8 7 7 5 5 7 8 9 11 14 18 18 19 18
31 31 28 28 29 31 30 27 25 22 23 20 27 25 23 24 29 30 31 31 31 29 24 22 23 20 17 12 10 8 6 2 2 2 2 4 7 10 14 17 20 22 23
19 27 31 31 35 35 34 31 31 26 28 44 32 27 20 18 21 25 27 32 36 38 36 31 28 28 24 21 18 20 21 18 15 12 13 14 13 13 14 19 22 23 23
Wind_Direction_500mb
223 227 231 235 231 235 243 245 244 242 247 250 256 244 255 256 256 262 271 266 264 270 265 266 271 280 276 275 281 284 286 282 272 270 282 341 52 33 43 353 347 344 342
224 226 232 234 235 238 243 245 241 238 243 254 251 243 253 265 253 259 264 263 262 266 275 271 272 278 273 269 275 289 281 274 268 264 265 278 297 276 303 330 330 330 331
232 229 232 232 235 237 243 246 245 244 243 244 247 245 250 261 266 262 258 264 247 266 270 262 260 262 267 271 266 285 289 284 269 260 262 265 267 270 287 307 322 331 22
237 236 234 233 236 237 240 242 242 245 242 242 249 244 246 259 261 256 264 253 253 258 259 271 262 268 269 269 272 272 264 282 275 266 266 269 269 271 285 303 331 320 324
231 238 237 236 235 233 236 238 240 248 247 248 250 247 244 252 252 262 266 263 265 261 264 270 274 262 273 270 265 275 260 272 261 262 264 272 276 283 284 293 314 162 332
236 240 236 246 238 235 235 243 246 246 244 243 253 259 252 255 260 259 266 272 268 265 267 268 265 268 267 266 274 270 276 269 260 267 249 255 276 275 280 288 287 227 191
237 234 232 229 226 234 234 243 239 244 245 245 251 254 260 262 265 274 278 273 261 266 265 267 269 270 271 258 260 270 267 261 263 260 264 273 275 273 274 276 256 217 187
247 240 230 220 230 239 239 255 254 240 238 238 249 256 257 259 263 267 271 272 261 261 268 266 270 268 252 256 257 264 271 260 262 267 272 278 277 270 250 235 220 227 207
224 225 214 219 226 229 212 214 227 233 237 239 229 234 252 258 279 268 263 266 280 251 243 249 262 261 251 242 256 258 264 262 267 271 275 270 250 220 208 204 216 220 195
236 225 223 198 215 216 230 223 221 249 255 258 257 270 279 274 282 281 284 282 280 268 239 241 244 258 243 238 267 257 257 261 264 250 232 206 178 176 188 203 194 198 221
196 191 185 201 199 240 241 258 282 273 262 265 273 271 259 262 273 278 278 283 275 260 245 241 240 236 248 254 251 254 250 257 222 201 195 186 182 193 221 233 243 249 254
150 171 199 235 253 223 229 241 254 261 247 244 247 263 271 281 279 271 265 279 284 262 237 225 222 230 237 226 225 219 219 204 196 199 206 222 247 267 276 280 284 287 289
130 148 155 163 166 168 179 190 179 141 133 195 317 327 326 327 327 315 270 266 247 244 245 245 240 236 222 215 219 202 203 196 202 208 228 244 253 264 280 301 308 310 309
107 112 119 107 113 109 115 127 129 129 129 72 84 76 4 3 13 20 18 3 315 261 225 218 214 202 193 193 183 178 180 190 207 223 220 312 334 329 324 319 314 314 310
109 118 127 139 126 148 145 168 165 152 122 97 71 68 45 30 22 12 20 43 44 61 43 170 156 159 159 148 145 141 122 87 53 55 44 22 8 350 335 326 322 321 313
111 108 110 113 116 112 118 145 200 206 193 178 136 103 79 60 31 35 52 83 89 100 143 155 153 157 154 153 160 205 262 289 302 310 313 330 340 338 341 335 336 339 341
95 91 93 88 81 91 104 109 111 120 113 95 90 109 70 46 59 79 92 90 106 123 148 163 164 186 161 148 179 251 254 264 273 291 305 309 305 314 331 324 319 336 337
104 92 90 77 72 76 84 95 101 94 86 100 139 107 100 95 74 52 95 91 105 116 142 168 163 161 202 219 212 222 230 239 254 14 351 320 310 312 328 353 359 357 347
125 122 112 100 92 95 102 98 94 98 95 101 108 129 134 135 133 130 121 121 125 118 121 121 112 190 182 176 163 131 101 95 53 12 355 1 358 11 4 1 356 355 350
166 176 163 153 147 151 152 119 133 136 99 130 140 139 147 149 146 137 137 143 132 140 152 170 163 155 129 204 180 95 40 30 17 343 336 333 347 351 332 327 335 337 337
226 221 217 197 202 205 190 187 187 167 192 160 162 175 183 186 200 211 239 237 232 210 217 222 215 202 193 191 193 197 212 239 251 261 251 255 264 288 302 307 321 333 330
262 255 235 220 226 216 205 212 231 236 234 212 194 194 191 193 200 199 201 213 225 214 219 212 212 216 238 248 256 271 268 266 263 267 276 273 290 319 329 335 340 339 334
253 265 253 236 228 226 227 234 233 238 230 220 208 216 212 209 205 199 201 206 202 193 194 186 169 160 158 155 148 161 167 146 139 124 75 40 24 2 350 347 349 341 321
251 258 249 240 237 235 230 233 237 233 224 227 226 236 238 235 238 238 229 219 213 205 194 184 178 176 173 163 144 133 117 105 100 74 64 49 34 19 13 9 0 348 334
257 253 251 238 236 236 233 235 237 231 223 242 237 234 243 250 251 253 247 239 230 226 220 209 201 202 203 204 200 194 195 188 33 14 8 19 21 16 13 10 4 356 349
267 254 250 249 241 240 242 238 226 208 243 242 222 247 253 252 242 253 259 251 245 239 234 234 236 226 221 226 228 241 245 247 258 278 293 295 301 310 323 332 338 341 335
Wind_Speed_850mb
46 43 39 35 41 40 39 35 33 30 28 28 27 27 27 29 29 29 27 26 25 22 23 24 23 23 22 21 18 18 18 15 12 8 6 2 5 7 2 6 12 22 23
46 42 39 34 37 42 41 37 31 30 31 28 30 35 32 28 35 38 37 29 32 24 23 24 22 19 14 17 15 15 17 19 17 18 14 9 4 4 6 10 17 22 22
49 45 41 37 36 40 39 38 35 32 32 33 32 38 37 35 32 36 37 36 30 26 24 26 26 22 19 18 16 16 17 16 17 16 14 18 18 17 15 17 17 13 11
51 50 46 41 34 33 35 33 33 31 32 31 30 31 33 33 32 31 33 33 34 36 30 30 32 31 26 26 23 20 14 13 14 15 16 16 18 21 16 9 7 5 4
43 53 53 47 39 32 33 33 32 32 35 31 27 29 30 29 30 31 33 36 38 36 36 38 31 32 26 24 26 22 19 17 16 16 16 13 12 11 10 9 4 1 3
58 53 48 45 42 34 27 28 33 32 33 31 29 26 27 30 31 34 35 41 39 40 38 35 35 34 35 33 26 24 23 21 18 17 13 13 17 16 16 13 6 6 7
52 48 53 54 49 33 29 29 32 34 33 33 32 30 25 27 28 28 30 35 43 42 41 38 36 37 31 32 27 26 27 26 22 18 21 23 21 21 21 17 9 7 10
44 50 52 48 51 43 45 33 28 33 39 36 31 29 26 29 31 31 29 25 32 38 40 36 36 38 30 22 25 28 33 28 23 25 25 26 25 22 16 14 11 11 11
21 25 29 29 29 26 29 23 23 24 32 31 22 18 19 20 22 28 29 27 21 29 38 42 40 41 38 23 25 26 31 29 27 25 20 14 9 9 11 10 9 9 6
17 21 19 13 20 20 27 29 14 19 27 26 21 17 23 29 31 31 29 29 27 21 26 29 28 32 25 24 27 29 29 29 26 17 11 7 8 10 11 11 12 7 7
13 21 14 12 12 15 22 22 27 32 41 43 46 42 42 45 41 32 29 29 25 32 28 32 26 27 25 23 29 26 23 22 20 16 14 12 11 8 8 10 11 13 15
14 17 10 7 11 8 9 15 19 15 15 20 18 19 18 16 17 24 24 25 31 35 24 22 26 27 25 22 17 16 17 22 23 20 15 11 10 11 12 13 13 12 13
7 10 10 8 6 5 5 5 5 5 2 1 2 8 10 11 12 14 24 28 29 31 37 36 38 41 35 25 20 20 23 24 22 17 13 10 9 8 8 11 14 16 17
6 8 10 12 13 13 17 12 10 8 5 1 3 3 5 6 9 10 12 10 9 15 19 22 21 17 14 18 24 24 20 16 11 7 3 1 5 9 12 15 18 20 22
10 10 11 10 8 7 7 6 7 7 4 2 4 7 6 9 9 9 8 9 8 6 2 5 17 19 17 19 20 21 21 18 13 12 13 15 18 19 19 20 19 17 17
11 10 9 8 6 5 5 3 6 8 5 7 6 8 8 10 9 10 8 9 10 8 12 21 19 14 19 18 12 7 9 14 25 20 14 11 16 21 22 19 18 18 19
15 14 10 8 6 5 6 7 5 9 10 10 10 5 5 9 15 16 16 16 15 16 14 19 17 8 13 11 4 8 12 17 17 19 14 14 18 16 18 20 19 18 17
12 11 13 13 12 9 6 5 6 5 4 1 1 6 12 13 8 2 6 11 16 17 13 9 6 7 8 6 5 6 5 4 3 2 4 4 6 8 10 10 12 14 17
10 11 10 9 10 11 11 11 10 12 14 11 11 13 17 21 20 16 18 11 6 7 10 9 5 5 3 2 4 4 4 2 3 7 6 5 4 7 11 14 17 19 20
6 9 8 10 9 9 9 5 8 4 6 7 9 12 11 12 9 11 13 11 10 13 14 11 15 13 7 3 4 3 6 9 8 8 10 9 7 7 8 10 13 14 15
3 10 11 14 9 11 12 12 9 3 6 6 9 11 15 16 13 8 9 9 7 5 7 10 9 11 15 16 13 10 9 9 9 8 10 9 7 7 9 10 13 14 14
13 13 17 18 16 13 17 17 16 15 12 17 17 14 14 13 12 11 9 6 5 5 8 11 11 9 8 9 8 8 9 9 8 8 6 5 5 6 9 11 13 15 15
27 23 23 25 23 23 21 19 18 17 15 18 25 14 18 17 13 12 11 10 9 9 9 8 9 10 11 9 6 5 4 3 2 1 1 2 5 7 9 12 13 14 13
31 29 28 27 29 26 26 21 19 16 18 17 21 22 21 20 21 21 21 21 21 18 16 17 18 17 14 9 8 8 7 7 5 5 7 8 9 11 14 18 18 19 18
31 31 28 28 29 31 30 27 25 22 23 20 27 25 23 24 29 30 31 31 31 29 24 22 23 20 17 12 10 8 6 2 2 2 2 4 7 10 14 17 20 22 23
19 27 31 31 35 35 34 31 31 26 28 44 32 27 20 18 21 25 27 32 36 38 36 31 28 28 24 21 18 20 21 18 15 12 13 14 13 13 14 19 22 23 23
Wind_Direction_850mb
223 227 231 235 231 235 243 245 244 242 247 250 256 244 255 256 256 262 271 266 264 270 265 266 271 280 276 275 281 284 286 282 272 270 282 341 52 33 43 353 347 344 342
224 226 232 234 235 238 243 245 241 238 243 254 251 243 253 265 253 259 264 263 262 266 275 271 272 278 273 269 275 289 281 274 268 264 265 278 297 276 303 330 330 330 331
232 229 232 232 235 237 243 246 245 244 243 244 247 245 250 261 266 262 258 264 247 266 270 262 260 262 267 271 266 285 289 284 269 260 262 265 267 270 287 307 322 331 22
237 236 234 233 236 237 240 242 242 245 242 242 249 244 246 259 261 256 264 253 253 258 259 271 262 268 269 269 272 272 264 282 275 266 266 269 269 271 285 303 331 320 324
231 238 237 236 235 233 236 238 240 248 247 248 250 247 244 252 252 262 266 263 265 261 264 270 274 262 273 270 265 275 260 272 261 262 264 272 276 283 284 293 314 162 332
236 240 236 246 238 235 235 243 246 246 244 243 253 259 252 255 260 259 266 272 268 265 267 268 265 268 267 266 274 270 276 269 260 267 249 255 276 275 280 288 287 227 191
237 234 232 229 226 234 234 243 239 244 245 245 251 254 260 262 265 274 278 273 261 266 265 267 269 270 271 258 260 270 267 261 263 260 264 273 275 273 274 276 256 217 187
247 240 230 220 230 239 239 255 254 240 238 238 249 256 257 259 263 267 271 272 261 261 268 266 270 268 252 256 257 264 271 260 262 267 272 278 277 270 250 235 220 227 207
224 225 214 219 226 229 212 214 227 233 237 239 229 234 252 258 279 268 263 266 280 251 243 249 262 261 251 242 256 258 264 262 267 271 275 270 250 220 208 204 216 220 195
236 225 223 198 215 216 230 223 221 249 255 258 257 270 279 274 282 281 284 282 280 268 239 241 244 258 243 238 267 257 257 261 264 250 232 206 178 176 188 203 194 198 221
196 191 185 201 199 240 241 258 282 273 262 265 273 271 259 262 273 278 278 283 275 260 245 241 240 236 248 254 251 254 250 257 222 201 195 186 182 193 221 233 243 249 254
150 171 199 235 253 223 229 241 254 261 247 244 247 263 271 281 279 271 265 279 284 262 237 225 222 230 237 226 225 219 219 204 196 199 206 222 247 267 276 280 284 287 289
130 148 155 163 166 168 179 190 179 141 133 195 317 327 326 327 327 315 270 266 247 244 245 245 240 236 222 215 219 202 203 196 202 208 228 244 253 264 280 301 308 310 309
107 112 119 107 113 109 115 127 129 129 129 72 84 76 4 3 13 20 18 3 315 261 225 218 214 202 193 193 183 178 180 190 207 223 220 312 334 329 324 319 314 314 310
109 118 127 139 126 148 145 168 165 152 122 97 71 68 45 30 22 12 20 43 44 61 43 170 156 159 159 148 145 141 122 87 53 55 44 22 8 350 335 326 322 321 313
111 108 110 113 116 112 118 145 200 206 193 178 136 103 79 60 31 35 52 83 89 100 143 155 153 157 154 153 160 205 262 289 302 310 313 330 340 338 341 335 336 339 341
95 91 93 88 81 91 104 109 111 120 113 95 90 109 70 46 59 79 92 90 106 123 148 163 164 186 161 148 179 251 254 264 273 291 305 309 305 314 331 324 319 336 337
104 92 90 77 72 76 84 95 101 94 86 100 139 107 100 95 74 52 95 91 105 116 142 168 163 161 202 219 212 222 230 239 254 14 351 320 310 312 328 353 359 357 347
125 122 112 100 92 95 102 98 94 98 95 101 108 129 134 135 133 130 121 121 125 118 121 121 112 190 182 176 163 131 101 95 53 12 355 1 358 11 4 1 356 355 350
166 176 163 153 147 151 152 119 133 136 99 130 140 139 147 149 146 137 137 143 132 140 152 170 163 155 129 204 180 95 40 30 17 343 336 333 347 351 332 327 335 337 337
226 221 217 197 202 205 190 187 187 167 192 160 162 175 183 186 200 211 239 237 232 210 217 222 215 202 193 191 193 197 212 239 251 261 251 255 264 288 302 307 321 333 330
262 255 235 220 226 216 205 212 231 236 234 212 194 194 191 193 200 199 201 213 225 214 219 212 212 216 238 248 256 271 268 266 263 267 276 273 290 319 329 335 340 339 334
253 265 253 236 228 226 227 234 233 238 230 220 208 216 212 209 205 199 201 206 202 193 194 186 169 160 158 155 148 161 167 146 139 124 75 40 24 2 350 347 349 341 321
251 258 249 240 237 235 230 233 237 233 224 227 226 236 238 235 238 238 229 219 213 205 194 184 178 176 173 163 144 133 117 105 100 74 64 49 34 19 13 9 0 348 334
257 253 251 238 236 236 233 235 237 231 223 242 237 234 243 250 251 253 247 239 230 226 220 209 201 202 203 204 200 194 195 188 33 14 8 19 21 16 13 10 4 356 349
267 254 250 249 241 240 242 238 226 208 243 242 222 247 253 252 242 253 259 251 245 239 234 234 236 226 221 226 228 241 245 247 258 278 293 295 301 310 323 332 338 341 335